Weather History for CYXE - January, 2013

Change the Weather History Date:

Monday, January 7, 2013

  Actual Average Record
Temperature  
Mean Temperature 18 °F -  
Max Temperature 28 °F 12 °F 39 °F (2002)
Min Temperature 8 °F -8 °F -32 °F (1999)
Degree Days  
Heating Degree Days 47    
Moisture  
Dew Point 16 °F    
Average Humidity 81    
Maximum Humidity 86    
Minimum Humidity 69    
Precipitation  
Precipitation 0.00 in 0.02 in - ()
Sea Level Pressure  
Sea Level Pressure 29.70 in    
Wind  
Wind Speed 12 mph ()    
Max Wind Speed 18 mph    
Max Gust Speed 24 mph    
Visibility 15.0 miles    
Events      
Averages and records for this station are not official NWS values.
T = Trace of Precipitation, MM = Missing Value Source: Averaged Metar Reports

Daily Weather History Graph

Daily Weather History Graph

Search for Another Location

Airport or City:

Trip Planner

Search our weather history database for the weather conditions in past years. The results will help you decide how hot, cold, wet, or windy it might be!

Date:

Astronomy

Jan. 07, 2013 Rise Set
Actual Time 9:13 AM CST 5:13 PM CST
Civil Twilight 8:33 AM CST 5:53 PM CST
Nautical Twilight 7:50 AM CST 6:36 PM CST
Astronomical Twilight 7:09 AM CST 7:17 PM CST
Moon 4:32 AM CST (1/7) 1:32 PM CST (1/7)
Length of Visible Light 9h 19m
Length of Day
7h 59m
Waning Crescent, 22% of the Moon is Illuminated
Jan 7
Waning Crescent
Jan 11
New
Jan 18
First Quarter
Jan 26
Full
Feb 3
Last Quarter

Hourly Weather History & Observations

Time (CST) Temp. Windchill Dew Point Humidity Pressure Visibility Wind Dir Wind Speed Gust Speed Precip Events Conditions
12:00 AM 28.4 °F 15.8 °F 19.4 °F 69% 29.62 in 15.0 mi WNW 18.4 mph 24.2 mph N/A   Scattered Clouds
1:00 AM 26.6 °F 15.7 °F 19.4 °F 74% 29.63 in 15.0 mi WNW 12.7 mph 19.6 mph N/A   Scattered Clouds
2:00 AM 24.8 °F 11.5 °F 19.4 °F 80% 29.65 in 15.0 mi WNW 17.3 mph - N/A   Scattered Clouds
3:00 AM 24.8 °F 11.5 °F 19.4 °F 80% 29.68 in 15.0 mi WNW 17.3 mph - N/A   Mostly Cloudy
4:00 AM 26.6 °F 14.7 °F 21.2 °F 80% 29.70 in 15.0 mi WNW 15.0 mph - N/A   Overcast
5:00 AM 26.6 °F 13.8 °F 21.2 °F 80% 29.70 in 15.0 mi WNW 17.3 mph - N/A   Overcast
6:00 AM 26.6 °F 15.7 °F 21.2 °F 80% 29.72 in 15.0 mi WNW 12.7 mph - N/A   Overcast
7:00 AM 23.0 °F 11.7 °F 19.4 °F 86% 29.74 in 15.0 mi WSW 11.5 mph - N/A   Overcast
8:00 AM 24.8 °F 14.0 °F 21.2 °F 86% 29.75 in 15.0 mi WSW 11.5 mph - N/A   Overcast
9:00 AM 24.8 °F 14.0 °F 21.2 °F 86% 29.75 in 15.0 mi WSW 11.5 mph 21.9 mph N/A   Overcast
10:00 AM 26.6 °F 16.2 °F 23.0 °F 86% 29.76 in 15.0 mi WSW 11.5 mph - N/A   Mostly Cloudy
11:00 AM 24.8 °F 12.9 °F 19.4 °F 80% 29.78 in 15.0 mi WSW 13.8 mph - N/A   Mostly Cloudy
12:00 PM 23.0 °F 11.7 °F 17.6 °F 80% 29.77 in 15.0 mi West 11.5 mph - N/A   Scattered Clouds
1:00 PM 23.0 °F 12.4 °F 17.6 °F 80% 29.76 in 15.0 mi WSW 10.4 mph - N/A   Scattered Clouds
2:00 PM 21.2 °F 8.3 °F 15.8 °F 80% 29.75 in 15.0 mi SW 13.8 mph - N/A   Partly Cloudy
3:00 PM 21.2 °F 9.5 °F 15.8 °F 80% 29.75 in 15.0 mi WSW 11.5 mph - N/A   Clear
4:00 PM 19.4 °F 7.9 °F 14.0 °F 80% 29.73 in 15.0 mi SW 10.4 mph 18.4 mph N/A   Clear
5:00 PM 15.8 °F 5.1 °F 10.4 °F 79% 29.71 in 15.0 mi SSW 8.1 mph - N/A   Partly Cloudy
6:00 PM 14.0 °F 2.9 °F 8.6 °F 79% 29.70 in 15.0 mi South 8.1 mph - N/A   Partly Cloudy
7:00 PM 8.6 °F -2.6 °F 5.0 °F 85% 29.69 in 15.0 mi South 6.9 mph - N/A   Partly Cloudy
8:00 PM 8.6 °F -4.7 °F 5.0 °F 85% 29.67 in 15.0 mi South 9.2 mph - N/A   Clear
9:00 PM 10.4 °F -0.4 °F 6.8 °F 85% 29.62 in 15.0 mi SSE 6.9 mph - N/A   Scattered Clouds
10:00 PM 15.8 °F 2.7 °F 10.4 °F 79% 29.57 in 15.0 mi SSE 11.5 mph - N/A   Mostly Cloudy
11:00 PM 17.6 °F 3.2 °F 10.4 °F 73% 29.54 in 15.0 mi SSE 15.0 mph - N/A   Mostly Cloudy